Skip Page Navigation
NASA JPL Caltech
NASA Logo - Jet Propulsion Laboratory + View the NASA Portal
+ Near-Earth Object (NEO) Program
Search JPL
JPL Home Earth Solar System Stars & Galaxies Technology
JPL Solar System Dynamics
BODIES ORBITS EPHEMERIDES TOOLS PHYSICAL DATA DISCOVERY FAQ SITE MAP
JPL Small-Body Database Browser
Search: [ help ]  
135268 Haignere (2001 SX115)
Classification: Main-belt Asteroid          SPK-ID: 2135268
Ephemeris | Orbit Diagram | Orbital Elements | Physical Parameters | Discovery Circumstances | Close-Approach Data ]

[ show orbit diagram ]
Orbital Elements at Epoch 2456800.5 (2014-May-23.0) TDB
Reference: JPL 6 (heliocentric ecliptic J2000)
 Element Value Uncertainty (1-sigma)   Units 
e .2982596653112847 8.7622e-08  
a 3.082158065276107 2.4814e-08 AU
q 2.162874632290379 2.6438e-07 AU
i 1.584565993749658 8.1053e-06 deg
node 15.37174011453427 0.00023392 deg
peri 25.12829011401615 0.00023426 deg
M 108.2950396525143 1.1253e-05 deg
tp 2456205.952096967581
(2012-Oct-05.45209697)
5.9713e-05 JED
period 1976.427043920487
5.41
2.3868e-05
6.535e-08
d
yr
n .1821468700842585 2.1996e-09 deg/d
Q 4.001441498261836 3.2215e-08 AU
  Orbit Determination Parameters
   # obs. used (total)      518  
   data-arc span      6297 days (17.24 yr)  
   first obs. used      1997-01-06  
   last obs. used      2014-04-04  
   planetary ephem.      DE431  
   SB-pert. ephem.      SB431-BIG16  
   condition code      0  
   fit RMS      .59174  
   data source      ORB  
   producer      Otto Matic  
   solution date      2014-Apr-17 16:08:46  

Additional Information
 Earth MOID = 1.16996 AU 
 T_jup = 3.157 
[ show covariance matrix ]

Ephemeris | Orbit Diagram | Orbital Elements | Physical Parameters | Discovery Circumstances | Close-Approach Data ]

Physical Parameter Table
Parameter Symbol Value Units Sigma Reference Notes
absolute magnitude H 14.6 mag n/a MPO257624  

135268 Haigneré           Discovered 2001 Sept. 20 by J.-C. Merlin at Le Creusot.
Claudie (b. 1957) and Jean-Pierre Haigneré (b. 1948) are both members of the European Space Agency corps of astronauts. Claudie flew aboard the MIR station in 1996 and the ISS in 2001. Jean-Pierre flew aboard MIR in 1993 and 1999. Claudie was born in Le Creusot, where this minor planet was discovered.
NOTE: some special characters may not display properly (any characters within {} are an attempt to place the proper accent above a character)
Reference: 20061109/MPCPages.arcLast Updated: 2006-11-13

[ show close-approach data ]
Ephemeris | Orbit Diagram | Orbital Elements | Physical Parameters | Discovery Circumstances | Close-Approach Data ]
ABOUT SSD CREDITS/AWARDS PRIVACY/COPYRIGHT GLOSSARY LINKS
FirstGov 2014-Apr-18 23:43 UT
(server date/time)  
NASA Home Page
Site Manager:   Donald K. Yeomans
Webmaster  Alan B. Chamberlin